Tracking 19817 objects as of 18-Aug-2019
HD Live streaming from Space Station
objects crossing your sky now

COSMOS 2251 DEB

Track COSMOS 2251 DEB now!
10-day predictions


NORAD ID: 38065
Int'l Code: 1993-036BRX
Perigee: 719.4 km
Apogee: 745.2 km
Inclination: 74.0 °
Period: 99.3 minutes
Semi major axis: 7103 km
RCS: 0.0159 m2 (small)
Launch date: June 16, 1993
Source: Commonwealth of Independent States (former USSR) (CIS)
Launch site: PLESETSK MISSILE AND SPACE COMPLEX (PKMTR)

Note: This is SATELLITE DEBRIS
aabbcc
Your satellite tracking list
Your tracking list is empty




NASA's NSSDC Master Catalog

Two Line Element Set (TLE):
1 38065U 93036BRX 19228.79324170 +.00000718 +00000-0 +19167-3 0  9991
2 38065 074.0303 118.9259 0018180 035.5975 028.7475 14.50139066385035
Source of the keplerian elements: AFSPC